Wind_Speed
50 52 53 49 47 46 46 46 44 42 41 41 40 39 39 38 38 39 40 41 41 41 40 39 38 37 37 38 37 37 36 36 36 35 34 33 33 33 35 37 38 40
49 52 54 53 51 49 48 47 46 44 44 43 43 42 43 41 40 40 40 41 42 43 42 42 41 40 39 39 39 39 39 38 38 38 37 36 35 34 35 36 38 39
48 51 53 55 55 52 50 49 48 45 44 45 45 45 45 44 43 42 41 42 43 44 44 44 44 43 42 42 42 41 41 41 40 40 39 38 38 37 36 36 37 39
48 51 55 59 61 59 57 56 53 48 46 48 49 48 48 47 46 46 45 44 43 44 45 46 46 46 45 45 44 44 44 44 43 42 41 41 40 39 39 38 38 39
49 50 55 60 62 62 63 62 59 54 52 52 52 51 51 50 49 49 48 47 46 45 45 46 47 48 48 48 47 47 46 46 46 45 45 44 43 42 41 40 40 40
50 50 53 58 61 63 65 66 63 58 56 55 55 54 53 52 51 49 49 49 48 47 47 47 47 48 49 50 50 50 49 49 48 48 48 47 46 45 44 43 42 42
56 55 55 59 63 66 68 70 68 66 62 59 57 57 56 55 54 53 52 51 51 50 49 48 48 48 49 50 51 52 52 51 51 51 50 50 49 49 48 47 46 44
54 52 53 56 61 65 69 71 72 70 67 64 61 60 60 60 59 58 57 55 53 53 52 51 50 50 50 50 51 52 52 53 53 53 53 53 52 51 51 50 50 48
47 46 49 53 56 59 61 64 66 66 65 64 63 63 63 63 62 61 59 57 55 55 55 54 53 53 53 53 52 52 52 53 53 54 54 55 55 55 54 54 53 52
46 44 44 42 41 42 45 49 54 60 62 62 63 64 64 64 64 63 62 61 59 56 55 55 56 56 56 55 55 54 53 53 53 53 54 55 56 57 57 57 56 55
50 49 47 41 34 31 36 43 48 55 59 58 58 61 63 65 65 65 65 63 61 58 56 56 57 57 58 58 57 57 56 55 55 55 54 54 56 57 58 59 59 59
46 52 54 53 46 37 33 35 39 48 55 54 52 55 59 62 65 67 67 65 64 63 63 63 64 65 65 64 62 60 59 58 58 57 56 55 56 57 58 59 60 60
46 52 53 55 57 51 44 40 42 51 58 59 58 59 59 59 62 65 67 67 67 66 67 68 68 68 67 65 64 63 62 61 60 59 58 58 58 59 59 60 60 60
54 55 54 55 58 61 61 59 59 63 67 67 67 66 62 60 60 62 63 65 66 65 64 64 63 63 62 61 61 62 63 63 62 62 62 61 61 61 61 61 61 61
57 57 57 57 58 61 65 68 68 69 70 70 69 66 63 61 60 60 60 61 62 62 61 59 58 58 58 58 58 58 60 61 62 63 63 62 62 62 63 63 63 63
60 59 58 59 59 61 64 66 68 69 69 68 67 64 63 61 60 60 60 60 60 60 59 59 58 57 56 56 56 56 56 57 58 60 62 63 63 63 63 64 64 65
61 61 61 61 61 62 63 65 66 66 66 65 64 64 63 61 61 61 60 60 60 60 60 59 59 58 57 57 57 56 56 56 57 58 61 63 64 64 64 63 63 63
62 62 62 62 63 63 64 64 64 64 63 63 63 62 62 61 61 61 61 61 60 60 60 60 60 60 59 59 58 58 57 57 57 59 61 62 64 65 65 65 64 64
62 62 62 62 63 63 63 63 63 62 62 61 61 61 61 61 61 61 61 62 62 61 61 61 62 62 62 62 61 61 60 59 60 61 62 63 63 64 65 66 67 67
62 62 62 62 63 63 63 62 61 61 61 61 61 61 61 61 61 62 62 62 63 63 63 63 63 64 64 64 64 64 63 63 63 64 64 65 65 64 64 65 66 68
61 60 61 62 62 63 62 62 61 61 61 61 61 61 62 62 63 63 63 64 64 65 65 66 66 66 66 66 66 67 67 67 67 67 67 67 68 67 67 66 67 69
60 60 61 61 62 62 62 62 62 62 62 62 62 62 62 63 63 64 65 65 66 67 67 68 69 69 69 69 69 70 70 70 70 70 70 70 70 70 70 70 70 71
60 61 61 62 62 63 63 64 64 64 64 64 64 64 64 64 64 65 66 67 67 69 69 70 71 71 71 72 72 73 73 73 74 74 73 73 73 73 73 73 73 74
62 62 63 63 64 65 65 65 65 65 66 66 66 66 66 66 66 66 67 68 69 70 71 72 73 73 73 74 74 75 75 76 77 77 77 76 76 76 75 75 76 76
64 65 66 66 67 67 67 67 68 68 68 69 69 69 68 68 68 68 69 70 71 71 72 73 74 75 75 75 76 76 77 77 78 79 79 79 79 79 78 78 78 79
67 68 69 69 69 70 70 70 70 71 71 71 71 71 70 70 69 70 70 71 72 73 74 74 75 75 76 76 77 78 78 79 79 80 81 81 81 81 81 81 81 81
Wind_Direction
261 263 265 265 268 274 278 277 279 282 283 282 280 278 278 275 272 269 266 265 265 266 267 269 270 270 269 268 269 269 269 270 270 269 267 263 260 257 254 250 247 245
263 264 266 265 267 274 278 277 279 283 283 283 281 279 279 277 275 272 269 266 264 263 264 264 265 266 266 265 265 266 267 267 268 268 268 267 264 261 258 255 252 249
265 266 267 266 265 270 274 275 278 282 283 282 281 280 279 277 275 273 271 268 265 263 261 261 261 262 263 263 262 263 264 265 264 264 265 266 266 265 263 260 257 254
265 264 265 265 263 265 270 274 275 278 281 282 280 279 279 277 274 273 272 270 268 265 263 261 260 259 260 260 261 261 262 262 263 262 261 261 262 263 263 262 260 258
263 262 263 266 267 268 271 273 273 274 278 280 279 277 277 276 275 273 271 270 269 268 266 263 261 259 258 258 258 258 259 259 261 261 261 260 259 259 259 260 260 260
262 261 263 266 268 271 272 273 273 273 275 276 275 274 275 274 274 273 271 270 268 268 267 266 263 261 259 258 257 256 256 256 257 258 259 260 259 259 258 257 257 258
259 259 261 265 267 270 272 273 274 274 275 274 271 270 271 272 272 272 271 269 267 266 266 266 265 263 262 260 258 257 256 255 255 255 255 257 258 259 259 258 256 256
259 260 263 267 271 272 274 275 276 276 275 273 271 269 268 269 271 271 271 270 269 267 266 265 265 264 263 262 260 259 257 256 255 254 254 254 255 256 257 258 257 257
257 261 266 270 274 277 278 278 277 276 274 271 270 268 267 267 267 268 269 270 271 270 267 264 264 263 263 263 262 261 259 258 257 256 255 254 254 254 254 255 256 256
250 254 261 266 271 275 277 277 277 277 275 272 270 268 267 265 264 264 265 267 270 271 267 264 263 263 263 263 263 263 261 260 259 258 256 256 255 254 254 253 254 254
248 247 249 253 258 264 270 275 277 277 277 274 270 268 267 266 265 264 264 265 266 266 265 263 263 263 265 266 265 264 263 262 261 259 257 257 256 256 255 254 253 253
250 248 247 246 248 253 260 265 266 268 271 271 269 269 268 268 266 265 265 265 264 263 263 264 264 265 266 267 266 265 263 263 262 260 259 259 259 258 257 256 255 254
246 249 248 245 245 246 246 245 247 254 262 267 270 271 270 268 267 265 265 264 264 263 264 266 266 267 266 265 263 262 262 262 261 260 260 261 261 261 260 258 257 256
248 251 251 249 246 246 246 246 248 254 259 264 268 270 269 267 266 265 265 265 264 264 264 265 266 266 265 263 261 260 259 259 258 258 259 260 261 261 261 260 258 257
254 255 254 253 250 249 249 250 252 255 259 262 265 267 267 266 266 265 265 265 265 265 264 263 263 263 263 262 260 258 258 257 256 256 256 256 257 258 258 258 258 257
257 257 256 255 253 252 252 252 253 256 259 261 263 264 265 265 265 265 265 265 265 266 265 264 263 262 261 260 259 257 256 257 257 256 254 253 253 255 256 257 257 257
257 257 257 256 254 253 253 253 254 256 258 260 261 263 263 264 264 265 265 265 265 265 266 266 265 264 262 261 260 258 257 258 259 258 256 254 252 253 254 255 256 256
256 256 256 256 255 255 255 255 255 256 257 258 259 261 262 263 263 264 264 264 264 264 264 265 266 266 265 264 263 262 260 260 261 260 259 257 256 254 254 253 253 254
256 256 255 255 254 254 255 255 256 257 257 257 258 259 260 261 261 262 263 263 263 263 263 263 264 264 265 264 264 263 263 262 261 261 261 261 260 258 257 256 255 253
255 255 254 254 253 253 254 255 256 257 258 259 259 259 260 260 261 261 261 262 263 264 263 262 262 262 263 263 264 264 263 263 262 261 261 262 261 261 260 260 259 258
255 255 254 254 253 253 253 254 256 257 258 259 260 260 261 261 261 261 261 261 262 263 263 263 262 262 262 262 262 263 263 262 262 261 261 261 261 261 261 261 261 261
258 257 256 255 255 255 255 256 256 257 258 258 259 259 260 261 261 262 262 262 262 262 262 262 262 262 262 262 261 261 261 261 261 261 261 261 261 261 261 261 261 261
259 259 259 259 259 259 259 259 258 258 258 258 258 259 259 260 261 261 262 263 263 262 262 262 262 262 262 262 261 261 261 261 261 261 261 261 260 260 260 260 261 260
261 260 260 261 261 261 261 261 261 261 261 261 261 261 261 261 261 261 261 262 262 262 262 262 262 262 261 261 261 261 261 261 261 261 261 261 261 261 260 260 260 260
261 260 260 261 261 262 262 263 264 264 264 264 264 264 263 263 263 262 262 262 261 261 261 261 261 262 262 261 261 261 261 261 261 262 262 262 262 261 261 261 260 261
261 262 262 263 263 264 265 266 266 266 267 267 267 266 266 266 265 265 264 263 263 262 261 261 261 261 261 261 261 261 261 261 261 261 261 262 262 262 262 262 262 261
Height
10563 10562 10564 10567 10570 10570 10570 10570 10569 10569 10570 10570 10571 10573 10574 10575 10576 10577 10578 10578 10579 10579 10580 10580 10580 10581 10581 10581 10581 10582 10582 10583 10584 10584 10585 10586 10587 10588 10589 10589 10590 10591
10559 10559 10560 10562 10565 10565 10564 10565 10564 10563 10564 10564 10565 10567 10567 10569 10569 10570 10571 10572 10573 10574 10574 10575 10576 10576 10577 10577 10578 10578 10578 10579 10580 10580 10581 10582 10583 10584 10585 10586 10587 10587
10557 10556 10556 10556 10557 10558 10558 10559 10559 10558 10558 10558 10560 10560 10561 10562 10563 10564 10565 10566 10567 10568 10569 10570 10570 10571 10572 10573 10573 10574 10575 10575 10576 10577 10577 10578 10579 10580 10581 10582 10583 10584
10552 10551 10550 10548 10549 10550 10551 10552 10554 10554 10553 10553 10553 10554 10555 10556 10557 10557 10559 10560 10561 10562 10563 10564 10565 10566 10567 10568 10569 10570 10570 10571 10572 10572 10573 10574 10575 10576 10576 10577 10578 10579
10546 10548 10546 10543 10543 10544 10543 10543 10546 10549 10550 10549 10548 10548 10549 10550 10551 10552 10553 10554 10556 10557 10558 10559 10560 10561 10562 10562 10563 10564 10565 10566 10567 10567 10568 10569 10570 10571 10572 10572 10573 10574
10543 10544 10543 10540 10539 10538 10536 10534 10537 10541 10544 10544 10543 10542 10542 10544 10545 10547 10547 10549 10550 10551 10552 10553 10554 10555 10556 10557 10557 10558 10559 10560 10561 10562 10563 10564 10565 10566 10567 10567 10568 10569
10539 10540 10539 10537 10534 10532 10529 10526 10528 10532 10535 10538 10539 10538 10537 10538 10539 10540 10541 10542 10543 10545 10546 10547 10548 10549 10550 10550 10551 10552 10553 10554 10555 10556 10557 10558 10559 10560 10561 10562 10563 10564
10535 10536 10535 10532 10528 10526 10523 10519 10519 10523 10527 10529 10531 10533 10533 10532 10532 10533 10534 10536 10537 10539 10540 10541 10542 10543 10543 10543 10544 10545 10547 10548 10549 10551 10552 10553 10554 10554 10555 10556 10557 10558
10531 10531 10528 10526 10523 10520 10517 10512 10512 10514 10517 10520 10522 10524 10526 10527 10526 10526 10527 10529 10531 10533 10535 10535 10535 10535 10535 10536 10537 10539 10540 10542 10543 10545 10546 10547 10548 10548 10549 10550 10551 10552
10526 10525 10521 10519 10518 10515 10510 10508 10507 10507 10509 10512 10514 10515 10516 10518 10519 10520 10521 10522 10525 10527 10528 10528 10527 10527 10527 10529 10531 10532 10534 10535 10537 10538 10539 10540 10541 10542 10542 10544 10545 10546
10520 10519 10518 10517 10515 10511 10508 10507 10506 10503 10503 10505 10507 10508 10508 10508 10510 10513 10514 10516 10519 10520 10520 10520 10519 10519 10520 10522 10524 10526 10527 10528 10529 10530 10531 10532 10533 10534 10535 10536 10537 10539
10512 10511 10513 10514 10512 10509 10507 10508 10505 10500 10498 10499 10501 10502 10502 10502 10502 10504 10505 10508 10511 10513 10512 10512 10511 10512 10513 10515 10517 10518 10520 10521 10522 10522 10523 10525 10525 10526 10527 10529 10530 10531
10503 10502 10505 10507 10507 10504 10502 10502 10500 10495 10493 10493 10494 10496 10497 10497 10496 10496 10497 10499 10502 10504 10504 10503 10503 10503 10504 10506 10508 10510 10511 10513 10514 10515 10515 10516 10517 10517 10519 10521 10522 10523
10494 10494 10496 10498 10500 10497 10493 10492 10491 10488 10488 10488 10488 10489 10490 10490 10489 10489 10490 10490 10492 10495 10496 10496 10496 10495 10495 10496 10499 10502 10502 10503 10505 10506 10507 10508 10508 10508 10510 10511 10513 10514
10484 10485 10487 10489 10490 10489 10486 10485 10484 10482 10482 10482 10482 10482 10482 10482 10482 10482 10482 10483 10484 10485 10487 10487 10488 10487 10486 10487 10490 10492 10493 10494 10495 10496 10497 10498 10499 10499 10500 10501 10504 10506
10475 10476 10477 10479 10479 10480 10479 10478 10477 10476 10476 10476 10475 10475 10475 10475 10475 10474 10475 10476 10476 10477 10478 10478 10479 10479 10479 10480 10481 10483 10484 10485 10485 10486 10486 10488 10489 10490 10490 10492 10494 10496
10466 10467 10468 10468 10469 10469 10470 10470 10470 10470 10470 10469 10468 10468 10468 10468 10468 10467 10468 10468 10469 10470 10470 10470 10470 10471 10472 10472 10472 10474 10476 10476 10476 10476 10476 10478 10479 10481 10481 10483 10485 10486
10458 10458 10459 10459 10459 10459 10460 10461 10462 10462 10462 10462 10461 10461 10461 10461 10461 10460 10460 10461 10461 10462 10463 10463 10463 10462 10463 10464 10464 10465 10467 10468 10468 10468 10467 10468 10470 10472 10472 10473 10475 10477
10449 10450 10451 10451 10450 10450 10451 10452 10453 10454 10454 10454 10454 10454 10454 10454 10454 10453 10452 10452 10453 10454 10455 10456 10455 10454 10454 10455 10455 10456 10458 10460 10460 10460 10459 10459 10461 10462 10463 10463 10465 10467
10440 10441 10442 10442 10442 10442 10443 10444 10444 10445 10446 10446 10446 10447 10446 10446 10446 10446 10445 10445 10445 10445 10446 10446 10446 10445 10446 10447 10447 10448 10449 10451 10451 10451 10451 10451 10451 10452 10453 10453 10454 10454
10430 10432 10433 10433 10433 10434 10435 10436 10436 10436 10437 10437 10438 10438 10438 10438 10438 10437 10437 10437 10437 10436 10436 10435 10435 10436 10438 10439 10439 10439 10440 10441 10441 10441 10442 10442 10442 10442 10443 10444 10444 10443
10420 10422 10422 10423 10424 10425 10426 10427 10427 10428 10428 10429 10429 10429 10430 10430 10429 10429 10428 10428 10428 10427 10426 10426 10426 10427 10428 10429 10429 10429 10430 10431 10431 10431 10432 10433 10433 10433 10433 10434 10434 10434
10411 10411 10412 10413 10414 10415 10415 10416 10417 10417 10418 10419 10420 10420 10421 10421 10421 10421 10420 10419 10418 10417 10416 10416 10416 10417 10417 10418 10418 10418 10419 10420 10420 10421 10422 10423 10423 10424 10424 10424 10424 10424
10400 10401 10401 10402 10403 10403 10403 10404 10405 10406 10407 10408 10409 10410 10411 10412 10412 10412 10411 10410 10408 10407 10406 10406 10406 10406 10407 10407 10408 10408 10408 10409 10409 10410 10410 10411 10412 10413 10414 10414 10414 10413
10388 10389 10390 10391 10391 10391 10392 10393 10394 10395 10395 10396 10397 10398 10400 10401 10401 10401 10400 10399 10398 10396 10396 10396 10396 10395 10396 10397 10397 10397 10398 10398 10398 10398 10399 10400 10401 10402 10403 10403 10403 10402
10377 10378 10378 10379 10380 10380 10381 10382 10383 10383 10383 10384 10385 10387 10388 10389 10389 10389 10388 10387 10386 10385 10385 10386 10386 10386 10386 10387 10387 10386 10386 10387 10387 10387 10387 10388 10389 10389 10390 10391 10391 10391